Weather History for Challis, ID

Change the Weather History Date:

Sunday, February 24, 2013

  Actual Average Record
Temperature  
Mean Temperature 26 °F 28 °F  
Max Temperature 35 °F 39 °F 60 °F (1954)
Min Temperature 17 °F 17 °F -8 °F (1952)
Degree Days  
Heating Degree Days 39 37  
Month to date heating degree days 912 983  
Since 1 July heating degree days 5540 5905  
Cooling Degree Days 0 0  
Month to date cooling degree days 0 0  
Year to date cooling degree days 0 0  
Moisture  
Dew Point 10 °F    
Average Humidity 55    
Maximum Humidity 74    
Minimum Humidity 35    
Precipitation  
Precipitation 0.00 in 0.03 in 0.55 in (1917)
Month to date precipitation 0.06 0.52  
Year to date precipitation 0.27 1.03  
Sea Level Pressure  
Sea Level Pressure 30.26 in    
Wind  
Wind Speed 2 mph (South)    
Max Wind Speed 8 mph    
Max Gust Speed 13 mph    
Visibility 10 miles    
Events      
T = Trace of Precipitation, MM = Missing Value Source: NWS Daily Summary

Daily Weather History Graph

Daily Weather History Graph

Search for Another Location

Airport:

Trip Planner

Search our weather history database for the weather conditions in past years. The results will help you decide how hot, cold, wet, or windy it might be!

Date:

Astronomy

Feb. 24, 2013 Rise Set
Actual Time 7:22 AM MST 6:18 PM MST
Civil Twilight 6:52 AM MST 6:47 PM MST
Nautical Twilight 6:19 AM MST 7:21 PM MST
Astronomical Twilight 5:45 AM MST 7:55 PM MST
Moon 5:34 PM MST (2/24) 6:22 AM MST (2/24)
Length of Visible Light 11h 55m
Length of Day
10h 56m
Waxing Gibbous, 99% of the Moon is Illuminated
Feb 24
Waxing Gibbous
Feb 25
Full
Mar 4
Last Quarter
Mar 11
New
Mar 19
First Quarter

Hourly Weather History & Observations

Time (MST) Temp. Windchill Dew Point Humidity Pressure Visibility Wind Dir Wind Speed Gust Speed Precip Events Conditions
12:55 AM 21.9 °F - 12.9 °F 68% 30.18 in 10.0 mi Calm Calm - N/A   Overcast
1:55 AM 23.0 °F - 10.0 °F 58% 30.18 in 10.0 mi Calm Calm - N/A   Overcast
3:55 AM 23.0 °F - 10.0 °F 58% 30.21 in 10.0 mi Calm Calm - N/A   Mostly Cloudy
4:55 AM 21.0 °F - 9.0 °F 60% 30.24 in 10.0 mi Calm Calm - N/A   Mostly Cloudy
5:55 AM 18.0 °F - 10.0 °F 71% 30.27 in 10.0 mi Calm Calm - N/A   Partly Cloudy
6:55 AM 18.0 °F - 8.1 °F 65% 30.30 in 10.0 mi Calm Calm - N/A   Overcast
7:55 AM 18.0 °F 12.7 °F 8.1 °F 65% 30.33 in 10.0 mi South 3.5 mph - N/A   Overcast
8:55 AM 19.9 °F - 8.1 °F 60% 30.34 in 10.0 mi Calm Calm - N/A   Mostly Cloudy
9:55 AM 23.0 °F - 8.1 °F 53% 30.34 in 10.0 mi Calm Calm - N/A   Scattered Clouds
10:55 AM 27.0 °F 21.6 °F 9.0 °F 47% 30.32 in 10.0 mi South 4.6 mph - N/A   Clear
11:55 AM 28.9 °F 23.9 °F 8.1 °F 41% 30.30 in 10.0 mi Variable 4.6 mph - N/A   Clear
12:55 PM 30.9 °F 24.3 °F 7.0 °F 37% 30.27 in 10.0 mi South 6.9 mph - N/A   Clear
1:55 PM 30.9 °F 27.5 °F 7.0 °F 37% 30.24 in 10.0 mi South 3.5 mph - N/A   Clear
2:55 PM 33.1 °F 30.0 °F 8.1 °F 35% 30.22 in 10.0 mi Variable 3.5 mph - N/A   Clear
3:55 PM 34.0 °F 28.8 °F 9.0 °F 35% 30.20 in 10.0 mi SSE 5.8 mph - N/A   Clear
4:55 PM 34.0 °F 29.8 °F 8.1 °F 34% 30.20 in 10.0 mi SSE 4.6 mph - N/A   Clear
5:55 PM 30.0 °F 26.5 °F 12.0 °F 47% 30.22 in 10.0 mi SW 3.5 mph - N/A   Clear
6:55 PM 27.0 °F - 12.9 °F 56% 30.24 in 10.0 mi Calm Calm - N/A   Partly Cloudy
7:55 PM 23.0 °F 18.4 °F 12.9 °F 65% 30.27 in 10.0 mi East 3.5 mph - N/A   Clear
8:55 PM 21.9 °F - 12.0 °F 66% 30.27 in 10.0 mi Calm Calm - N/A   Clear
9:55 PM 21.0 °F - 12.9 °F 71% 30.26 in 10.0 mi Calm Calm - N/A   Clear
10:55 PM 19.0 °F 13.9 °F 10.0 °F 68% 30.25 in 10.0 mi NNW 3.5 mph - N/A   Clear
11:55 PM 19.0 °F - 10.0 °F 68% 30.23 in 10.0 mi Calm Calm - N/A   Clear